Location: Bayou Vista
(29.6905°N, 91.2709°W)
Time: 05:28:39
(UTC+00:00)

Transit 4A - Pass Details

Date: 11 August 2024
Orbit: 867 x 976 km, 66.8° (Epoch: 09 September)

Event Time Altitude Azimuth Distance (km) Brightness Sun altitude
Rises 03:46:35 0° 315° (NW) 3,592 12.1 -33.3°
Reaches altitude 10° 03:49:47 10° 299° (WNW) 2,664 11.0 -33.8°
Maximum altitude 03:54:04 20° 255° (WSW) 2,068 9.9 -34.4°
Enters shadow 03:55:02 19° 243° (WSW) 2,106 9.8 -34.6°
